DW0805 Weather Reports


Display with metric or nautical units.
time (UTC)temp
F
wind
direction
speed
MPH
gust
MPH
rain 1hr
in
rain 24hr
in
rain mn
in
humidity
%
barometer
mb
20260902094515 67 248 13.0 21.0 0.00 0.04 0.00 78 1014.0
20260902091514 66 252 10.0 17.0 0.00 0.04 0.00 82 1014.1
20260902085514 66 313 10.0 17.0 0.00 0.04 0.00 83 1014.1
20260902084514 65 231 12.0 16.0 0.00 0.04 0.00 83 1014.1
20260902083514 65 307 8.0 13.0 0.00 0.04 0.00 86 1014.2
20260902081515 64 295 6.0 16.0 0.00 0.04 0.00 87 1014.1
20260902080515 63 236 13.0 17.0 0.00 0.04 0.00 87 1014.2
20260902075514 64 235 9.0 16.0 0.00 0.04 0.00 88 1014.1
20260902070515 63 223 9.0 16.0 0.00 0.04 0.00 90 1013.8
20260902065514 62 233 10.0 15.0 0.00 0.04 0.00 90 1013.9
20260902064516 62 234 9.0 15.0 0.00 0.04 0.00 90 1013.9
20260902063514 62 244 11.0 17.0 0.00 0.04 0.00 91 1013.9
20260902060515 61 228 9.0 15.0 0.00 0.04 0.00 91 1013.9
20260902051515 60 251 7.0 13.0 0.00 0.04 0.00 92 1013.9
20260902041515 59 230 7.0 14.0 0.00 0.04 0.00 92 1013.8
20260902034514 59 234 6.0 9.0 0.00 0.04 0.00 92 1013.9
20260902033514 59 217 6.0 12.0 0.00 0.04 0.00 92 1014.0
20260902032514 59 218 5.0 9.0 0.00 0.04 0.00 92 1014.0
20260902031514 59 232 5.0 10.0 0.00 0.04 0.00 92 1014.0
20260902024515 58 225 6.0 8.0 0.00 0.04 0.00 92 1014.1
20260902023514 57 219 4.0 8.0 0.00 0.04 0.00 92 1014.1
20260902020515 57 224 5.0 8.0 0.00 0.04 0.00 91 1014.0
20260902014515 57 220 2.0 6.0 0.00 0.04 0.00 91 1014.0
20260902013514 57 228 4.0 7.0 0.00 0.04 0.00 90 1014.0
20260902010514 58 257 3.0 7.0 0.00 0.04 0.00 88 1014.1
20260902005514 58 260 6.0 9.0 0.00 0.04 0.00 88 1014.2
20260902003514 58 253 6.0 15.0 0.00 0.04 0.00 87 1014.1
20260902001515 59 257 8.0 12.0 0.00 0.04 0.00 88 1014.2
20260901235515 58 269 7.0 12.0 0.00 0.04 0.00 88 1014.2
20260901234515 58 310 9.0 13.0 0.00 0.04 0.00 88 1014.2
20260901233514 58 284 6.0 16.0 0.00 0.04 0.00 88 1014.3
20260901231515 59 276 9.0 15.0 0.00 0.04 0.00 89 1014.2
20260901225516 59 271 12.0 17.0 0.00 0.04 0.00 91 1014.0
20260901222514 60 264 9.0 16.0 0.00 0.04 0.00 91 1013.8
20260901221509 60 248 9.0 15.0 0.00 0.04 0.00 91 1013.8
20260901220514 61 260 7.0 14.0 0.00 0.04 0.00 90 1013.8
20260901215515 60 274 4.0 7.0 0.00 0.00 0.00 88 1013.9
20260901213515 60 282 3.0 7.0 0.00 0.00 0.00 88 1013.8
20260901210514 59 272 2.0 3.0 0.00 0.00 0.00 87 1013.5
20260901203515 60 292 3.0 5.0 0.00 0.01 0.00 85 1013.5
20260901201514 61 286 2.0 6.0 0.00 0.01 0.00 84 1013.5
20260901200514 61 287 4.0 9.0 0.00 0.01 0.00 84 1013.4
20260901193514 62 291 3.0 9.0 0.00 0.01 0.00 82 1013.2
20260901184516 64 278 7.0 12.0 0.00 0.01 0.00 86 1012.7
20260901183514 64 232 9.0 13.0 0.00 0.01 0.00 86 1012.6
20260901182515 64 253 8.0 14.0 0.00 0.01 0.00 86 1012.6
20260901180514 64 274 7.0 15.0 0.00 0.01 0.00 86 1012.5
20260901175514 64 244 5.0 12.0 0.00 0.01 0.00 85 1012.4
20260901174514 64 246 7.0 13.0 0.00 0.01 0.00 84 1012.2
20260901173515 65 262 6.0 15.0 0.00 0.01 0.00 84 1012.2
20260901165515 66 226 7.0 12.0 0.00 0.01 0.00 81 1012.0
20260901164516 66 253 9.0 14.0 0.00 0.01 0.00 80 1011.9
20260901162515 68 268 6.0 12.0 0.00 0.01 0.00 77 1011.9
20260901160514 68 278 10.0 14.0 0.00 0.01 0.00 80 1011.8
20260901155515 67 304 8.0 14.0 0.00 0.01 0.00 82 1011.7
20260901151514 69 316 13.0 17.0 0.00 0.02 0.00 79 1011.6
20260901143516 70 272 9.0 15.0 0.00 0.04 0.00 76 1011.5
20260901135514 70 253 11.0 15.0 0.00 0.04 0.00 74 1011.6
20260901134515 70 241 8.0 15.0 0.00 0.04 0.00 74 1011.6
20260901133515 70 322 7.0 10.0 0.00 0.04 0.00 74 1011.6
20260901124515 69 344 9.0 13.0 0.00 0.04 0.00 75 1011.5
20260901122515 68 286 7.0 13.0 0.00 0.04 0.00 79 1011.5
20260901115514 67 236 6.0 14.0 0.00 0.04 0.00 81 1011.6
20260901114514 66 311 7.0 12.0 0.00 0.04 0.00 81 1011.7
20260901113514 67 329 8.0 16.0 0.00 0.04 0.00 81 1011.6
20260901105515 66 304 7.0 12.0 0.00 0.05 0.00 86 1011.5
20260901103515 64 286 9.0 15.0 0.00 0.09 0.00 85 1011.5
20260901102515 65 337 8.0 15.0 0.00 0.12 0.00 85 1011.3
20260901101515 65 330 10.0 15.0 0.00 0.13 0.00 84 1011.4
20260901100514 65 275 10.0 16.0 0.00 0.13 0.00 85 1011.1